Weather Roundup
Issued by NWS

Home | Current Version | Previous Version | Text Only | Print | Product List | Glossary On
Versions: 1 2 3 4 5 6 7 8 9 10 11 12 13 14 15 16 17 18 19 20 21 22 23 24 25 26 27 28 29 30 31 32 33 34 35 36 37 38 39 40 41 42 43 44 45 46 47 48 49 50
000
NZUS93 KARX 230910
HRRWXR

CURRENT HOURLY OBSERVATIONS ACROSS
MUCH OF THE UPPER MISSISSIPPI VALLEY
NATIONAL WEATHER SERVICE LA CROSSE WI
400 AM CDT MON APR 23 2018


...SOUTHEAST MINNESOTA...


CITY           SKY/WX    TMP DP  RH WIND       PRES   REMARKS
ROCHESTER      FAIR      39  30  70 SE8       30.25R WCI  33
ROCHESTER/MAYO FAIR      44  29  55 SE5       30.25S
WINONA         FAIR      34  32  93 NW3       30.24S
AUSTIN         FAIR      39  30  70 E3        30.24S
ALBERT LEA     FAIR      39  30  70 CALM      30.24R
DODGE CENTER   FAIR      37  30  75 SE6       30.25R WCI  33
PRESTON        FAIR      41  28  57 CALM      30.26R
OWATONNA       FAIR      34  32  93 CALM      30.24S
FARIBAULT      NOT AVBL
$$

...ELSEWHERE IN MINNESOTA...


CITY           SKY/WX    TMP DP  RH WIND       PRES   REMARKS
MINNEAPOLIS    FAIR      42  36  79 CALM      30.24S
INTNL FALLS    MOCLDY    45  35  68 SW6       30.12F
DULUTH         FAIR      41  28  60 SW3       30.20F
RED WING       FAIR      32  27  80 CALM      30.25R
REDWOOD FALLS  CLEAR     38  37  97 CALM      30.22S
MANKATO        FAIR      42  36  79 E6        30.23S
WORTHINGTON    PTCLDY    36  34  92 CALM      30.22S
FAIRMONT       CLEAR     36  33  89 CALM      30.23S
$$

...SOUTHWEST WISCONSIN...


CITY           SKY/WX    TMP DP  RH WIND       PRES   REMARKS
LA CROSSE      FAIR      40  30  67 E3        30.26S
PRAIRIE DU CHI FAIR      38  31  76 CALM      30.25S
BOSCOBEL       FAIR      33  30  88 CALM      30.25F
LONE ROCK      FAIR      33  30  88 CALM      30.26S
PLATTEVILLE    FAIR      42  29  58 E10       30.23S
FORT MC COY    FAIR      29  26  88 CALM      30.28R
CAMP DOUGLAS   FAIR      28  27  95 CALM      30.27R
MAUSTON-NEW LI FAIR      31  29  90 CALM      30.26S
VIROQUA        FAIR      40  29  66 E7        30.25S WCI  35
WIS DELLS      FAIR      32  27  82 CALM      30.26S
$$

...ELSEWHERE IN WISCONSIN...


CITY           SKY/WX    TMP DP  RH WIND       PRES   REMARKS
MILWAUKEE      FAIR      41  31  67 NE3       30.26F
MADISON        FAIR      34  27  75 CALM      30.25F
GREEN BAY      FAIR      32  28  85 N3        30.29S
EAU CLAIRE     FAIR      35  26  69 N3        30.25S
BLACK RVR FLS  FAIR      27  26  97 CALM      30.26F
MEDFORD        FAIR      31  24  74 CALM      30.26S
WAUSAU         FAIR      31  23  72 CALM      30.26S
WIS RAPIDS     FAIR      33  25  72 CALM      30.28S
MARSHFIELD     FAIR      36  24  62 E3        30.25F
RICE LAKE      FAIR      33  29  85 CALM      30.27S
$$

...NORTHEAST IOWA...


CITY           SKY/WX    TMP DP  RH WIND       PRES   REMARKS
WATERLOO       FAIR      38  33  82 CALM      30.21F
DUBUQUE        FAIR      42  28  57 NE10      30.22S
DECORAH        FAIR      43  30  61 CALM      30.23S
MASON CITY     CLEAR     35  32  88 E3        30.24S
CHARLES CITY   FAIR      43  30  61 NE5       30.23F
OELWEIN        CLOUDY    41  34  75 E6        30.22S
$$

...ELSEWHERE IN IOWA...


CITY           SKY/WX    TMP DP  RH WIND       PRES   REMARKS
DES MOINES     CLOUDY    51  30  44 E8        30.17S
IOWA CITY      FAIR      49  28  44 NE8       30.19S
FORT DODGE     CLOUDY    42  38  85 E7        30.21S
MARSHALLTOWN   CLOUDY    46  33  60 E7        30.19S
CEDAR RAPIDS   FAIR      49  29  46 NE13      30.18S
$$

...NORTHERN ILLINOIS...


CITY           SKY/WX    TMP DP  RH WIND       PRES   REMARKS
CHICAGO-OHARE  MOCLDY    46  26  45 NE8       30.19F
CHICAGO-MIDWAY MOCLDY    46  26  45 NE8       30.20S
MOLINE         FAIR      44  29  55 E9        30.17S
ROCKFORD       MOCLDY    41  26  55 NE8       30.24S
PEORIA         FAIR      50  26  39 E13       30.13F
$$

NOTE: "FAIR" INDICATES FEW OR NO CLOUDS BELOW 12,000 FEET WITH NO
SIGNIFICANT WEATHER AND/OR OBSTRUCTIONS TO VISIBILITY. WIND
SPEEDS ARE IN MILES-PER-HOUR.




USA.gov is the U.S. government's official web portal to all federal, state and local government web resources and services.